Wind_Speed
56 55 55 54 53 53 52 49 45 42 40 39 38 36 34 32 30 28 25 23 21 20 19 18 17 15 14 13 12 11 10 9 9 8 7 7 6 5 4 3 3 3 4 4 5 5 6 7 7
56 56 56 56 56 55 52 49 45 43 42 40 39 37 35 33 31 29 26 24 23 21 20 18 17 16 14 13 12 11 11 10 9 9 8 7 6 5 4 3 3 3 4 5 5 6 6 7 8
56 56 57 57 58 56 52 49 46 45 43 42 40 39 37 35 33 30 28 26 24 23 21 19 18 16 15 14 13 12 11 11 10 9 8 7 6 5 4 4 4 4 5 5 6 6 7 7 8
57 57 58 58 58 55 53 50 48 46 45 44 42 40 39 36 34 31 29 27 26 24 23 21 19 17 16 15 13 12 12 11 10 9 9 8 7 6 5 4 4 4 5 5 6 7 7 8 9
59 58 58 58 56 55 54 51 49 48 47 45 44 42 40 38 36 33 31 29 27 26 24 22 20 19 18 16 15 13 12 12 11 10 9 8 7 6 6 5 5 5 6 6 7 7 8 9 10
59 59 59 58 54 54 54 53 51 49 48 47 45 43 42 39 37 35 33 31 29 27 26 24 22 20 19 17 16 15 13 12 11 11 10 9 8 7 7 6 6 6 7 7 8 8 9 10 11
59 58 58 56 54 54 54 53 52 51 49 48 47 45 43 41 39 37 35 32 31 29 27 25 24 22 20 19 17 16 15 14 12 11 11 10 9 8 8 7 7 7 7 8 9 9 10 11 12
59 57 57 57 55 53 52 53 52 52 51 50 48 47 45 43 41 39 36 34 32 30 28 26 25 23 22 20 19 17 16 15 14 13 12 11 10 9 9 8 8 8 9 9 10 11 11 12 13
58 58 57 56 55 52 52 53 53 53 53 51 50 48 46 45 42 40 38 36 34 31 30 28 26 24 23 22 21 19 18 16 15 14 13 12 11 11 11 10 10 10 11 11 12 12 13 14 15
59 59 55 54 54 54 52 53 53 53 53 53 51 49 47 46 44 42 40 37 35 33 31 29 27 26 24 23 22 21 19 18 17 16 15 14 14 13 13 13 12 12 12 13 13 14 15 15 16
57 56 55 56 54 54 53 53 54 53 53 53 52 51 49 47 45 44 42 40 38 36 34 32 29 27 26 25 24 23 21 20 19 18 17 17 16 16 15 15 15 14 14 15 15 16 16 17 18
55 55 56 56 55 54 54 53 54 55 53 53 53 52 50 48 47 45 44 42 40 38 36 34 32 30 28 27 26 25 24 23 22 21 20 19 18 18 18 17 17 17 17 17 17 18 19 19 20
54 54 56 57 56 55 54 53 54 55 55 54 54 54 52 50 48 47 46 44 42 40 38 36 34 32 30 29 28 28 27 26 24 23 22 22 21 21 20 20 20 20 19 19 20 20 21 21 22
54 55 56 57 56 55 55 54 54 55 55 55 55 55 53 52 50 48 47 45 43 42 40 38 36 34 33 32 31 31 30 28 27 26 25 25 24 24 23 23 23 22 22 22 22 22 23 23 24
50 53 55 56 56 54 54 54 54 54 55 55 55 55 55 53 52 50 48 47 45 44 43 41 39 37 36 35 34 34 33 32 31 30 29 28 28 27 27 26 26 25 25 25 25 25 25 26 26
46 51 54 55 55 54 54 54 53 54 55 56 55 54 54 54 53 51 50 48 47 45 44 43 42 40 39 38 37 37 36 35 34 33 33 32 31 30 30 29 29 28 27 27 28 28 28 28 28
44 47 50 52 54 54 54 54 54 54 54 55 56 55 54 53 53 52 51 50 48 47 45 44 43 43 42 40 40 40 39 39 38 37 36 35 35 34 33 33 32 31 30 30 30 30 30 30 31
41 44 46 49 51 53 53 53 53 53 53 54 55 56 55 54 52 52 51 50 49 48 47 46 45 44 44 44 43 42 42 42 41 40 40 39 38 38 37 36 36 35 34 34 33 33 33 33 33
39 42 44 45 48 50 51 51 53 53 54 54 54 55 55 54 52 51 51 50 50 49 47 46 46 46 46 46 45 44 44 44 44 44 44 43 42 41 40 39 39 38 37 37 36 36 36 36 36
38 39 41 43 44 47 49 50 51 53 53 53 54 54 54 54 54 53 51 50 49 49 48 48 47 46 47 47 47 46 46 47 47 46 46 45 45 45 44 42 41 41 40 40 39 39 39 38 39
35 36 38 40 42 44 46 47 50 51 51 52 52 52 53 54 54 53 52 51 50 50 50 49 49 48 49 49 49 48 48 49 49 48 48 47 47 46 45 44 44 44 43 42 42 41 41 41 41
32 34 36 38 40 42 45 45 47 49 50 50 50 50 50 51 53 54 53 53 52 51 51 51 51 50 50 50 50 50 50 50 50 49 49 49 49 48 47 47 47 46 46 45 44 44 43 43 43
29 32 33 35 37 39 41 43 44 46 46 46 48 49 49 50 50 52 53 53 53 53 53 52 52 52 51 50 51 50 51 51 51 51 50 50 50 51 50 49 48 48 47 47 47 46 46 45 45
26 29 30 32 34 38 39 40 41 42 43 44 45 46 47 48 49 49 50 52 52 53 53 53 52 52 52 52 51 51 52 52 52 53 52 52 52 51 51 52 51 50 50 49 48 48 48 47 47
25 26 28 30 32 35 35 38 39 39 41 43 44 45 46 46 47 47 48 49 50 51 52 52 52 51 52 52 52 53 52 52 52 53 53 54 54 52 52 52 52 51 51 50 50 50 49 49 49
24 25 26 27 29 31 33 35 36 37 38 40 42 44 44 45 44 45 46 47 48 49 50 50 51 51 51 52 52 52 52 52 53 53 53 53 53 53 53 52 52 52 52 52 52 52 52 51 51
24 23 23 24 27 28 30 31 32 34 35 36 38 40 41 42 41 42 44 45 46 47 48 48 49 50 49 49 50 50 51 52 53 53 53 52 52 53 53 53 53 53 52 52 52 52 51 51 52
22 21 21 21 23 25 26 27 28 31 32 33 35 36 37 38 38 39 41 42 44 45 46 47 47 48 49 49 49 50 51 51 52 52 52 52 51 51 52 52 53 52 52 52 52 52 52 52 51
20 19 20 21 22 23 24 25 26 28 30 32 33 33 34 35 36 37 38 39 40 42 43 44 45 46 47 48 48 48 49 50 50 51 51 51 51 51 51 52 52 52 52 52 52 52 51 50 50
18 17 18 19 20 22 23 24 24 25 27 29 31 31 32 33 34 35 36 37 37 39 40 42 43 44 44 45 46 46 47 47 49 49 50 51 51 51 51 51 52 51 51 51 51 51 50 49 48
Wind_Direction
219 219 217 216 216 216 216 216 215 214 214 216 216 218 218 218 219 221 219 218 218 219 219 218 218 218 218 217 217 219 221 221 221 222 223 224 227 233 242 254 279 301 315 323 326 331 335 338 341
219 218 218 217 216 216 216 215 214 214 215 216 217 218 219 219 220 221 220 219 219 220 220 220 221 221 220 219 219 221 223 223 223 223 224 225 230 238 245 256 277 296 309 317 321 327 331 335 338
218 218 218 218 217 216 216 215 215 215 215 216 217 218 219 219 220 220 221 220 221 222 222 222 223 223 222 220 221 221 222 223 224 225 225 227 232 238 246 262 280 295 306 314 318 323 327 330 332
217 218 218 218 218 217 216 215 215 215 215 216 217 218 219 220 220 221 222 222 223 223 223 223 223 223 221 220 221 222 222 223 225 225 226 228 232 240 251 265 280 294 306 312 315 319 322 324 327
216 217 218 218 217 217 216 215 215 215 215 216 217 219 220 220 221 222 223 224 224 224 224 223 223 223 222 221 222 223 223 224 225 226 226 229 235 244 254 266 279 292 303 310 312 314 317 320 322
215 216 217 217 216 216 216 215 215 215 214 215 216 218 219 219 220 221 223 224 225 225 225 224 223 222 222 221 222 224 224 225 226 228 229 233 239 247 256 267 279 290 298 306 309 310 314 317 319
214 215 217 216 215 216 215 215 215 215 214 215 216 217 218 219 220 221 222 224 225 226 226 225 224 223 223 223 223 225 227 228 230 233 235 238 243 251 258 267 278 288 296 302 306 309 312 314 315
213 214 215 215 214 214 214 215 215 215 214 215 216 217 217 218 219 221 222 224 225 226 226 226 226 225 225 225 225 227 229 232 233 237 240 243 248 256 263 271 279 287 295 301 304 307 310 311 312
212 213 213 213 214 213 214 215 215 215 214 214 215 217 218 218 219 221 222 223 225 226 227 228 228 226 227 227 228 229 231 234 237 240 243 248 253 259 266 273 280 286 292 298 302 304 306 308 309
212 213 211 213 213 212 213 214 214 214 214 214 215 216 217 218 219 220 222 223 225 227 228 229 230 229 229 230 230 232 234 236 239 243 246 250 256 262 267 272 278 283 288 293 298 301 303 304 305
212 212 210 212 211 212 213 214 213 213 214 215 216 216 216 217 219 220 221 223 224 226 227 229 231 231 232 232 233 234 236 238 241 245 249 253 257 262 267 272 276 281 285 289 293 296 298 300 301
211 210 210 210 210 211 212 213 213 213 213 215 215 216 216 217 218 220 222 223 225 227 228 230 232 233 234 234 235 237 238 240 243 247 250 254 258 262 266 271 274 278 282 286 290 292 295 297 298
210 209 211 210 210 211 211 212 213 213 213 215 216 216 218 218 219 220 222 224 225 227 229 231 233 234 235 235 237 239 241 242 245 248 252 255 258 261 265 269 272 276 280 283 286 288 291 293 295
210 210 212 212 212 211 211 211 213 213 214 215 216 217 218 219 221 222 223 224 226 227 229 231 233 234 235 237 238 240 242 245 248 250 252 255 258 260 263 267 270 273 276 279 282 285 287 290 292
211 211 212 212 213 213 212 213 213 213 215 216 217 218 219 220 221 223 224 225 226 228 230 231 233 235 236 238 239 241 243 246 249 251 253 255 258 260 262 265 268 271 273 276 279 281 284 286 288
210 212 213 213 214 214 214 213 213 215 216 217 218 219 221 222 222 224 225 227 228 229 231 232 233 235 237 238 240 242 244 246 249 252 255 257 259 260 263 265 268 270 272 275 278 279 282 284 286
210 213 214 214 215 215 215 213 213 215 217 218 219 221 222 223 224 225 226 228 229 231 232 234 235 236 237 239 240 243 245 247 249 252 255 257 259 260 263 265 268 270 272 274 276 278 280 282 284
208 212 214 215 216 216 216 214 214 215 217 219 220 221 223 223 225 227 227 228 230 232 233 235 237 238 239 240 241 243 246 247 250 252 254 256 258 259 261 264 267 270 271 273 275 277 279 281 283
208 211 214 216 216 218 217 216 215 216 218 219 221 221 223 224 226 228 229 229 231 232 234 236 238 240 242 242 242 244 246 248 250 253 254 255 257 259 261 263 266 269 270 272 274 276 278 279 281
209 212 214 216 217 218 218 217 217 217 218 220 222 222 223 225 226 228 230 231 232 233 234 236 238 240 242 244 244 245 246 248 249 251 253 254 256 259 260 262 265 267 269 271 273 275 277 278 280
207 211 215 217 218 219 219 219 218 218 219 221 223 224 225 225 226 228 230 231 233 234 235 237 239 241 242 244 245 246 247 248 249 250 252 253 255 257 260 262 264 266 268 270 272 274 276 277 279
206 209 213 216 218 220 221 221 220 220 221 222 224 226 227 227 228 229 230 231 232 235 236 238 241 242 243 245 245 246 247 247 247 249 251 253 254 256 259 261 263 265 266 269 271 272 274 276 278
207 209 212 216 218 221 222 223 221 222 222 223 225 227 228 229 229 230 231 232 233 235 237 239 240 242 244 245 246 247 248 248 249 250 252 254 255 257 258 260 262 264 266 268 270 271 273 275 277
205 209 210 214 218 222 222 225 223 223 223 224 225 226 228 229 230 231 232 233 234 235 237 239 240 242 243 244 246 247 248 249 251 252 253 254 255 258 259 260 261 263 265 267 269 270 271 274 276
201 205 207 212 218 223 223 227 225 224 224 225 225 226 227 229 230 231 233 233 234 236 238 240 241 242 244 245 247 248 249 250 251 252 253 254 256 258 260 261 261 263 265 266 268 270 271 273 275
197 200 206 213 219 223 224 226 224 223 224 225 226 226 228 230 232 233 234 234 235 237 238 240 242 243 245 247 248 249 251 252 253 254 255 256 257 258 259 261 262 263 265 267 269 270 271 273 275
195 200 207 216 220 224 224 225 224 223 224 225 226 227 228 230 232 234 234 235 236 237 239 242 244 245 246 248 250 252 253 255 256 257 258 258 258 259 261 261 262 264 265 266 268 270 271 273 275
199 204 209 215 218 223 224 225 225 224 223 224 225 227 228 230 232 234 235 236 237 239 241 242 244 246 248 250 252 253 254 256 257 258 259 260 260 261 262 262 264 265 266 267 269 270 272 273 275
203 209 212 216 220 222 225 226 225 225 225 225 225 227 229 230 232 234 235 236 238 240 242 244 246 248 250 252 254 255 256 257 258 259 260 261 261 262 263 265 266 267 268 270 270 271 273 274 276
210 213 216 221 225 226 229 227 226 226 226 227 227 229 231 233 234 235 237 238 239 240 242 244 246 248 250 252 254 256 257 258 259 260 261 261 263 264 265 266 267 267 268 270 271 272 273 275 276
Height
5784 5790 5797 5802 5808 5814 5821 5829 5836 5841 5845 5849 5853 5857 5862 5866 5871 5875 5876 5877 5880 5882 5883 5885 5887 5889 5890 5891 5892 5894 5895 5896 5896 5897 5897 5898 5898 5898 5898 5898 5898 5898 5898 5897 5897 5896 5896 5895 5894
5775 5782 5788 5793 5799 5807 5816 5824 5831 5836 5840 5844 5849 5853 5858 5862 5866 5869 5872 5874 5877 5879 5881 5883 5885 5887 5888 5890 5891 5892 5893 5894 5895 5896 5896 5897 5897 5897 5897 5897 5897 5897 5897 5896 5896 5895 5895 5894 5894
5766 5772 5779 5785 5792 5803 5812 5819 5825 5830 5835 5839 5844 5848 5853 5857 5862 5865 5869 5872 5874 5876 5879 5881 5883 5885 5886 5888 5889 5890 5892 5893 5894 5894 5895 5895 5896 5896 5896 5896 5896 5896 5896 5895 5895 5894 5894 5893 5892
5757 5763 5770 5777 5787 5798 5805 5812 5818 5824 5829 5834 5839 5843 5848 5854 5858 5862 5865 5868 5871 5874 5876 5878 5880 5882 5884 5886 5887 5889 5890 5891 5892 5893 5893 5894 5894 5895 5895 5895 5895 5895 5894 5894 5894 5893 5893 5892 5891
5747 5754 5761 5769 5781 5791 5798 5805 5811 5817 5823 5829 5834 5838 5844 5849 5853 5858 5861 5865 5868 5871 5873 5876 5878 5880 5882 5884 5885 5887 5888 5889 5890 5891 5892 5892 5893 5893 5893 5893 5893 5893 5893 5893 5892 5892 5891 5890 5890
5738 5745 5753 5763 5775 5784 5791 5797 5804 5810 5817 5822 5828 5833 5838 5844 5849 5853 5857 5861 5864 5867 5870 5873 5875 5878 5880 5881 5883 5885 5886 5887 5888 5889 5890 5891 5891 5891 5892 5892 5892 5891 5891 5891 5891 5890 5890 5889 5888
5729 5738 5747 5759 5768 5775 5784 5790 5797 5803 5810 5816 5822 5827 5833 5839 5844 5848 5853 5856 5860 5863 5867 5870 5872 5875 5877 5879 5881 5882 5884 5885 5886 5887 5888 5889 5889 5890 5890 5890 5890 5890 5890 5889 5889 5888 5887 5887 5886
5721 5731 5739 5749 5759 5769 5777 5783 5789 5796 5803 5809 5816 5821 5827 5833 5838 5843 5848 5852 5856 5860 5863 5866 5869 5872 5874 5876 5878 5880 5881 5883 5884 5885 5886 5887 5887 5887 5888 5888 5888 5888 5887 5887 5887 5886 5885 5884 5884
5713 5722 5731 5743 5754 5763 5769 5775 5781 5788 5795 5802 5808 5815 5822 5828 5833 5839 5843 5848 5852 5856 5859 5863 5866 5868 5871 5873 5875 5877 5878 5880 5881 5882 5883 5884 5884 5885 5885 5885 5885 5885 5885 5885 5884 5884 5883 5882 5881
5703 5713 5728 5738 5745 5753 5760 5767 5773 5780 5787 5795 5802 5808 5815 5821 5828 5833 5838 5843 5847 5851 5855 5858 5862 5864 5867 5869 5871 5873 5875 5876 5878 5879 5880 5881 5882 5882 5882 5883 5883 5883 5882 5882 5881 5881 5880 5879 5878
5696 5710 5721 5727 5736 5744 5751 5758 5765 5772 5780 5789 5796 5802 5808 5815 5821 5827 5832 5837 5842 5846 5850 5853 5857 5860 5863 5865 5867 5869 5871 5873 5874 5876 5877 5878 5879 5879 5880 5880 5880 5880 5879 5879 5878 5878 5877 5876 5875
5692 5703 5711 5720 5728 5735 5743 5750 5757 5765 5775 5781 5787 5794 5801 5808 5815 5821 5826 5831 5836 5841 5845 5849 5852 5855 5858 5861 5863 5865 5867 5869 5871 5872 5873 5874 5875 5876 5876 5876 5876 5876 5876 5876 5875 5874 5873 5872 5871
5685 5695 5703 5711 5719 5727 5735 5743 5750 5759 5766 5773 5780 5787 5795 5802 5808 5814 5820 5825 5830 5835 5839 5843 5847 5850 5853 5856 5858 5861 5863 5864 5866 5868 5869 5870 5871 5872 5872 5872 5872 5872 5872 5872 5871 5870 5869 5868 5867
5679 5688 5695 5703 5711 5719 5727 5735 5743 5752 5759 5766 5773 5781 5788 5795 5801 5807 5813 5819 5824 5829 5834 5838 5841 5845 5848 5851 5853 5855 5858 5859 5861 5863 5864 5865 5866 5867 5868 5868 5868 5868 5868 5868 5867 5866 5865 5864 5863
5673 5681 5688 5695 5704 5712 5720 5728 5737 5746 5752 5759 5766 5773 5780 5787 5794 5800 5807 5812 5818 5823 5827 5831 5835 5839 5842 5845 5848 5850 5852 5854 5856 5857 5859 5860 5861 5862 5863 5863 5863 5863 5863 5863 5862 5861 5860 5859 5858
5666 5673 5681 5689 5697 5705 5714 5723 5732 5737 5744 5752 5759 5766 5773 5780 5787 5793 5799 5806 5811 5816 5820 5825 5829 5832 5836 5839 5841 5844 5846 5848 5850 5852 5853 5854 5856 5856 5857 5857 5858 5858 5858 5857 5857 5856 5855 5854 5853
5659 5667 5676 5684 5691 5699 5707 5717 5724 5729 5737 5744 5752 5759 5766 5773 5779 5786 5792 5798 5804 5809 5813 5818 5822 5825 5829 5832 5835 5837 5839 5841 5843 5845 5847 5848 5849 5850 5851 5851 5852 5852 5852 5852 5851 5850 5849 5848 5847
5656 5664 5671 5678 5685 5693 5701 5710 5717 5723 5730 5737 5744 5751 5758 5765 5772 5778 5785 5791 5796 5801 5806 5811 5814 5818 5821 5824 5827 5830 5832 5835 5836 5838 5840 5841 5842 5843 5844 5844 5845 5845 5845 5845 5845 5844 5843 5842 5841
5652 5659 5666 5673 5680 5688 5695 5702 5709 5716 5722 5730 5737 5744 5751 5758 5765 5771 5777 5783 5788 5794 5798 5803 5807 5810 5813 5817 5820 5823 5825 5827 5829 5831 5832 5833 5835 5836 5837 5837 5837 5838 5838 5838 5837 5837 5836 5835 5833
5648 5655 5661 5668 5674 5681 5688 5695 5702 5709 5716 5723 5730 5737 5744 5751 5757 5763 5769 5775 5781 5786 5790 5794 5798 5802 5805 5808 5811 5814 5817 5819 5821 5822 5824 5825 5826 5828 5828 5829 5830 5830 5830 5830 5829 5829 5828 5827 5826
5644 5651 5657 5663 5669 5675 5682 5688 5695 5703 5709 5716 5723 5730 5736 5743 5749 5755 5761 5767 5772 5777 5782 5786 5790 5793 5797 5799 5803 5805 5808 5810 5812 5814 5815 5816 5818 5819 5820 5821 5821 5821 5822 5821 5821 5821 5820 5819 5818
5641 5647 5653 5659 5665 5670 5676 5682 5690 5696 5703 5710 5717 5723 5729 5735 5741 5747 5753 5758 5764 5768 5773 5777 5781 5784 5787 5791 5794 5797 5799 5801 5803 5804 5806 5807 5808 5810 5811 5812 5812 5813 5813 5813 5812 5812 5811 5810 5809
5638 5643 5649 5655 5660 5665 5670 5677 5685 5690 5696 5704 5710 5716 5721 5727 5732 5738 5744 5749 5754 5759 5763 5767 5771 5775 5778 5781 5785 5787 5789 5791 5793 5795 5796 5798 5799 5800 5801 5802 5803 5803 5804 5803 5803 5802 5801 5801 5800
5635 5641 5646 5650 5655 5661 5666 5671 5679 5685 5692 5698 5703 5708 5713 5718 5724 5729 5734 5739 5744 5749 5754 5758 5762 5765 5769 5772 5774 5777 5780 5781 5783 5785 5787 5788 5789 5790 5791 5792 5793 5793 5794 5794 5793 5792 5792 5791 5790
5633 5639 5643 5647 5650 5656 5662 5665 5673 5679 5685 5690 5695 5700 5705 5710 5715 5720 5725 5730 5735 5740 5744 5748 5752 5755 5758 5762 5764 5767 5769 5771 5773 5775 5777 5778 5779 5780 5781 5782 5783 5783 5783 5783 5783 5782 5781 5780 5779
5631 5636 5642 5645 5648 5653 5656 5660 5668 5673 5677 5682 5687 5692 5696 5702 5707 5712 5717 5721 5726 5730 5734 5738 5742 5745 5748 5751 5754 5756 5759 5761 5763 5764 5766 5767 5768 5769 5770 5771 5771 5772 5772 5772 5772 5771 5771 5770 5769
5629 5633 5638 5642 5645 5649 5652 5657 5662 5667 5671 5675 5680 5684 5689 5694 5699 5704 5708 5712 5717 5721 5725 5729 5732 5735 5738 5741 5743 5746 5748 5749 5751 5753 5754 5756 5757 5758 5758 5759 5760 5761 5760 5760 5760 5760 5759 5759 5758
5628 5632 5635 5638 5641 5645 5649 5652 5657 5661 5665 5669 5673 5678 5682 5687 5691 5696 5700 5704 5708 5712 5716 5719 5722 5725 5728 5730 5733 5735 5737 5738 5740 5741 5743 5744 5745 5746 5747 5748 5748 5749 5749 5749 5749 5749 5748 5747 5746
5627 5630 5632 5635 5638 5642 5645 5651 5652 5655 5659 5663 5667 5671 5676 5680 5684 5688 5692 5696 5700 5703 5707 5710 5713 5716 5718 5721 5722 5724 5726 5727 5729 5730 5731 5733 5734 5735 5735 5736 5737 5737 5737 5737 5737 5737 5736 5735 5734
5625 5627 5630 5633 5635 5638 5641 5648 5647 5651 5654 5658 5661 5665 5669 5673 5677 5681 5685 5688 5692 5695 5698 5701 5704 5706 5709 5710 5712 5714 5716 5717 5718 5719 5720 5721 5722 5723 5724 5725 5725 5725 5726 5725 5725 5725 5724 5724 5723